Theta_e
308 308 308 308 308 308 309 309 308 308 309 309 309 309 308 309 309 309 310 310 311 311 311 312 312 312 312 312 311 311 310 309 311 311 312 316 306 306 310 313 315 313 310 309 309 310 312 311 311 312 314 316 317 318 317 318 317 313 313 314 313 313 312 313 315 315 315 315 315 314 318 321 324 332 339 342 344 347 351 353 351 350 349 347 345 343 341 342
307 308 308 308 308 308 308 308 308 308 308 309 309 309 309 309 309 310 310 310 310 310 311 311 312 312 312 312 311 310 310 310 311 313 318 312 308 308 309 314 317 316 312 310 310 311 312 311 311 312 315 317 317 317 317 318 317 314 315 314 312 313 312 313 314 315 315 315 316 314 316 321 324 326 333 344 348 352 356 354 352 352 349 346 343 341 341 341
307 307 307 307 307 307 307 308 308 308 308 309 309 309 309 309 309 310 309 310 310 310 311 311 312 312 311 312 310 310 310 311 317 324 321 313 315 310 310 314 317 317 315 312 311 309 311 311 311 314 315 317 318 317 317 317 317 315 314 314 313 313 312 314 314 314 315 315 315 315 316 318 320 322 333 345 350 354 357 355 354 354 351 345 340 340 341 340
307 307 307 307 307 307 307 308 308 308 308 308 309 309 309 309 309 309 309 309 309 310 310 311 312 311 311 311 309 310 310 316 327 326 316 313 317 314 310 311 315 317 316 315 312 308 311 312 311 314 315 317 318 317 317 316 316 314 314 314 313 312 313 314 314 315 316 316 315 315 317 319 316 321 336 345 351 355 356 354 353 353 349 343 340 340 340 339
307 307 307 307 307 306 306 306 307 307 307 308 308 308 309 309 309 309 309 309 309 309 309 310 310 310 311 310 309 310 313 320 324 320 314 314 313 314 311 307 312 317 316 315 313 309 310 311 311 314 315 318 318 317 319 317 315 314 313 314 313 312 313 314 314 315 315 316 315 315 317 317 316 318 327 339 350 353 352 351 351 350 345 341 341 341 338 338
306 306 307 307 307 306 305 306 307 308 307 307 308 308 309 309 309 309 309 309 309 308 309 309 309 310 310 310 310 312 315 312 315 315 312 314 312 311 311 308 311 316 316 313 311 309 310 311 312 313 315 317 318 319 320 317 314 315 314 314 313 312 313 313 314 315 316 316 315 316 316 316 318 315 319 335 344 346 348 350 350 347 342 341 343 341 339 339
305 305 306 306 306 306 306 306 307 308 308 308 308 308 308 308 309 309 309 308 308 308 308 308 308 309 309 310 312 315 318 317 314 313 314 314 313 311 311 311 313 315 314 310 309 310 311 311 312 313 315 317 318 318 318 316 314 314 314 313 312 312 312 313 315 315 315 315 315 317 316 316 318 314 322 335 339 344 349 349 347 344 342 342 343 341 339 339
304 305 306 306 306 306 307 307 307 308 308 308 308 308 307 307 308 308 308 308 308 308 308 308 308 309 309 310 315 318 319 320 313 312 316 315 312 311 313 313 315 314 310 308 308 309 311 311 312 313 314 316 317 317 316 316 315 313 313 313 313 312 313 313 315 315 315 315 316 317 317 318 317 315 326 336 340 348 350 347 345 342 343 343 343 342 339 339
305 306 306 306 307 307 307 307 307 308 308 308 308 308 306 305 306 306 307 307 307 307 307 309 308 308 309 311 316 315 313 315 313 315 315 315 313 311 314 315 315 313 309 308 308 309 311 313 314 314 315 316 315 315 315 315 315 315 313 313 313 312 313 313 314 315 315 316 316 316 317 318 318 315 324 334 342 349 349 347 346 344 345 344 343 341 339 339
305 306 306 306 307 307 307 306 306 307 307 307 307 306 304 303 303 303 304 304 306 305 306 308 307 308 309 312 316 312 310 313 316 319 316 315 312 311 314 314 314 312 309 309 308 309 311 313 315 314 314 314 314 314 313 313 314 314 313 312 312 312 312 312 314 315 314 316 316 316 317 318 318 315 319 329 340 348 349 347 346 346 346 344 342 341 339 338
305 305 306 306 306 306 305 305 305 305 305 305 305 304 303 302 300 300 301 301 303 304 306 307 307 309 310 313 317 311 308 313 316 318 316 314 311 312 313 310 311 310 309 310 310 310 311 312 313 313 313 313 312 313 312 313 313 312 312 312 312 312 313 313 313 315 314 315 317 316 316 317 316 315 318 326 337 347 349 348 347 347 346 344 342 340 339 337
306 305 306 306 305 303 301 301 302 303 303 303 303 303 302 300 299 299 300 301 304 305 306 307 308 309 311 314 315 310 306 313 314 312 311 311 311 311 312 310 309 307 308 311 311 311 312 312 313 314 314 312 311 312 312 312 312 312 312 311 312 312 312 314 314 315 314 314 317 316 315 317 316 315 318 324 335 346 349 349 348 347 345 344 342 340 339 336
306 306 305 304 302 299 298 299 300 301 301 301 301 301 299 299 299 299 299 303 306 306 306 307 308 309 312 316 314 308 307 311 310 309 309 309 311 312 310 310 310 308 307 310 312 312 312 313 314 314 313 312 312 312 312 312 312 314 313 311 312 313 313 315 315 315 315 315 317 315 314 318 319 315 316 321 332 344 348 349 347 346 344 343 343 340 338 336
306 306 304 303 300 298 298 299 299 300 300 300 300 299 298 298 298 298 300 306 308 306 305 307 308 310 315 318 311 309 312 313 313 312 312 311 311 314 311 310 311 310 308 308 310 311 313 313 313 313 312 312 312 312 313 313 313 314 313 314 313 312 315 318 317 316 315 316 318 315 314 318 319 317 315 318 329 342 347 348 346 345 344 343 343 339 336 336
305 304 302 301 299 298 298 299 299 299 300 300 299 298 298 297 298 298 302 309 309 306 306 308 308 311 317 318 312 313 315 317 318 315 314 314 312 314 313 311 311 311 310 309 310 311 312 313 313 313 313 313 312 312 313 313 314 314 313 318 317 311 315 318 316 316 315 315 316 313 314 316 317 317 315 315 323 338 346 347 346 345 344 343 341 338 337 339
302 300 298 298 298 298 299 299 299 300 300 300 298 298 298 297 298 300 305 310 309 306 307 310 309 311 318 320 314 315 316 319 321 315 315 315 313 314 314 314 314 313 312 310 311 312 312 313 314 315 313 312 313 311 312 313 318 319 315 318 318 313 314 315 315 316 315 315 314 313 315 317 317 317 316 313 318 335 344 345 346 344 344 343 340 339 339 341
298 297 296 297 297 298 299 298 299 300 300 299 298 298 298 298 299 302 308 309 308 307 308 311 311 311 316 316 314 317 317 318 319 315 314 315 314 315 314 315 314 314 313 312 313 312 313 314 314 317 316 314 315 313 313 313 316 320 316 317 318 314 312 312 315 316 314 315 314 313 315 317 321 319 317 313 316 334 344 344 345 344 343 342 341 341 342 342
296 296 297 297 298 298 298 298 299 300 300 299 299 298 298 301 304 307 310 309 309 309 310 312 311 313 317 317 317 319 318 317 318 316 314 313 314 315 316 315 314 315 314 314 315 313 314 315 314 318 318 314 314 313 313 313 314 317 316 317 318 314 313 312 312 314 314 315 314 314 314 315 319 317 317 315 315 333 343 343 343 344 343 343 342 342 342 342
296 297 297 297 298 298 298 299 300 301 301 299 298 298 302 309 312 312 310 310 314 318 318 317 314 314 316 317 316 316 317 317 318 317 315 314 313 314 315 314 315 315 314 315 316 314 313 315 314 315 315 314 314 313 311 311 313 315 315 316 316 313 313 312 311 313 313 313 313 314 314 314 315 315 318 316 315 330 341 342 343 344 344 344 343 342 342 342
296 296 297 298 298 298 299 299 300 302 301 301 301 301 306 313 313 315 315 313 317 320 317 318 315 314 313 314 313 314 316 316 316 317 316 315 313 312 312 313 315 315 315 316 316 315 314 315 314 313 314 315 317 316 313 312 313 314 313 313 313 312 312 312 312 313 312 312 313 314 314 314 314 314 316 317 323 337 341 342 344 345 345 344 344 343 342 342
296 296 297 297 298 299 299 299 300 301 301 302 303 304 306 308 305 309 316 315 315 316 315 314 314 314 313 313 313 314 315 316 316 316 316 315 313 312 313 313 314 315 315 315 316 316 314 314 314 312 314 316 319 321 319 317 315 314 314 313 313 312 312 313 313 314 313 313 313 314 313 313 314 315 315 314 325 341 342 343 345 345 346 344 344 343 340 340
295 296 297 297 299 299 298 300 301 300 301 304 304 305 306 306 304 303 307 308 309 313 315 314 313 314 314 313 314 314 316 316 316 315 315 315 312 312 315 315 314 315 315 314 314 313 313 314 313 312 314 317 318 320 321 320 319 317 314 314 315 314 313 315 317 318 316 315 316 315 312 313 314 314 317 314 321 339 342 342 344 345 346 344 342 341 340 339
295 296 296 298 299 298 299 300 300 301 304 306 305 305 306 305 306 306 306 307 308 311 315 314 313 314 314 314 314 314 316 316 315 315 313 312 312 313 315 315 315 314 314 314 314 313 314 313 312 312 313 316 318 318 319 320 320 320 318 316 315 314 313 315 320 320 317 317 317 315 313 314 315 313 316 315 320 338 342 341 343 344 345 344 342 339 339 338
296 296 297 298 298 299 300 298 301 305 306 304 305 306 306 306 308 308 308 311 312 311 312 312 312 312 312 313 313 314 315 315 315 315 313 312 313 313 315 315 315 314 313 313 313 313 312 311 311 313 314 315 316 317 319 320 319 321 321 317 314 314 314 316 320 320 320 322 321 316 311 314 322 318 316 318 323 337 343 341 344 345 344 343 340 338 338 336
296 297 297 299 300 300 298 300 306 307 304 303 305 304 306 309 309 309 311 316 319 315 312 311 310 310 311 312 313 314 314 314 315 314 313 313 314 315 314 314 314 313 312 311 312 312 311 312 313 313 314 314 314 316 318 320 320 320 323 321 316 316 319 319 320 319 318 321 324 317 307 315 333 328 318 321 326 334 342 344 344 345 344 342 340 338 337 334
296 298 298 300 301 300 300 305 306 304 303 305 305 306 309 311 310 309 315 322 323 320 316 313 312 312 311 312 313 314 315 315 315 314 314 313 314 315 314 314 312 312 312 310 311 311 310 312 313 314 315 313 313 314 314 319 320 319 327 327 320 318 320 321 319 317 316 319 324 324 317 319 331 330 325 325 323 329 338 342 342 344 343 341 339 337 335 334
297 298 299 300 301 302 304 307 304 303 306 307 307 309 311 311 309 309 316 320 320 320 318 313 312 313 311 312 312 314 317 317 315 313 314 315 314 315 315 314 312 310 310 309 310 311 311 313 313 315 316 314 314 313 314 320 318 322 333 328 319 317 319 320 317 314 318 321 324 330 330 322 322 329 331 325 320 327 334 338 341 344 342 340 338 335 335 334
298 299 299 300 301 302 303 304 302 304 308 307 309 311 311 310 308 313 320 318 314 316 317 312 312 312 311 312 311 314 318 317 316 315 313 315 315 315 315 313 311 311 311 310 311 314 315 314 313 314 315 315 314 313 316 318 317 326 334 324 318 318 318 320 316 314 319 319 321 331 330 319 325 339 335 324 321 328 336 340 342 345 341 338 337 335 334 333
298 299 300 300 300 301 304 305 304 306 305 306 309 310 309 308 312 320 322 319 315 314 315 313 314 314 313 312 311 313 315 315 317 316 313 314 315 315 315 314 312 311 310 311 313 316 316 314 313 313 314 315 315 314 316 318 320 325 325 319 318 316 316 317 313 314 318 315 319 332 328 316 327 344 336 324 321 327 339 344 342 343 339 337 337 334 333 333
298 299 300 301 301 302 304 304 304 303 303 306 310 309 308 314 323 323 319 320 318 314 314 315 316 317 314 312 312 313 314 314 315 314 313 315 315 315 315 314 313 313 314 314 314 314 312 313 314 313 313 316 318 317 315 317 320 320 319 316 313 315 317 317 318 317 316 319 326 334 329 315 323 338 335 326 323 331 341 344 341 341 338 337 335 333 333 333
299 299 300 301 302 303 303 304 304 304 304 307 310 310 310 316 323 323 319 318 318 314 315 316 315 318 315 312 314 314 313 316 315 313 315 316 314 315 316 316 315 316 318 315 314 316 313 311 314 315 315 316 317 318 315 316 316 315 316 313 313 322 323 322 324 316 313 325 335 334 326 316 320 330 333 330 329 335 342 343 342 340 338 337 334 333 333 332
300 300 301 302 303 302 303 305 304 304 306 309 311 315 318 314 314 320 320 317 321 319 312 311 312 316 318 315 316 315 314 316 316 314 316 317 317 316 316 320 321 317 319 321 318 318 318 315 314 315 318 316 315 317 316 316 315 312 315 314 314 320 322 325 328 320 319 328 331 329 321 317 324 328 328 331 330 334 340 341 340 338 337 336 333 332 331 330
300 301 302 303 304 304 305 304 303 306 310 311 313 321 323 315 313 319 316 313 319 316 309 311 310 310 317 319 317 317 316 317 317 315 316 316 318 317 314 319 321 316 321 325 319 315 317 318 315 313 316 316 316 317 315 317 317 312 314 315 317 320 319 324 328 323 322 322 323 327 318 316 331 333 327 331 333 335 339 339 337 336 334 334 332 331 331 329
302 303 304 306 309 309 308 305 306 309 311 311 316 321 316 311 316 319 313 311 313 310 309 310 307 306 313 317 317 317 317 317 315 313 315 316 317 319 317 315 316 315 317 318 318 317 316 318 320 316 315 316 316 316 315 320 320 316 316 316 319 327 325 323 326 324 321 322 324 323 314 319 335 338 331 332 334 335 336 336 335 333 333 333 331 331 330 329
305 305 304 306 310 312 309 307 309 310 310 314 319 318 313 313 317 317 315 313 309 308 309 307 306 308 311 314 317 320 318 320 321 315 316 318 318 321 320 315 315 316 314 317 322 319 313 318 325 318 314 317 315 315 315 315 318 318 318 315 315 324 327 325 328 331 328 326 324 321 320 326 333 335 333 333 335 335 335 335 334 333 333 333 333 331 330 329
308 309 306 304 309 312 308 309 312 310 313 318 316 313 316 317 315 313 312 310 307 307 306 305 307 309 312 315 317 320 321 329 330 322 317 319 317 319 319 315 315 313 314 323 326 318 311 319 324 316 315 316 313 316 315 311 321 324 316 315 316 320 324 322 324 329 326 322 324 328 330 329 330 332 332 333 336 336 336 335 334 334 334 334 333 331 330 329
309 311 310 308 310 313 310 311 313 311 316 322 318 315 316 314 310 309 307 307 307 307 305 306 308 309 311 313 314 318 320 326 328 323 323 324 323 323 320 317 317 313 312 317 320 319 315 317 322 316 314 317 313 314 315 312 321 323 315 316 318 316 321 328 329 329 324 323 329 334 331 329 334 336 332 334 338 337 337 336 334 334 334 333 333 331 330 330
308 311 313 312 311 313 312 312 313 313 319 323 320 319 316 311 308 307 306 306 306 305 304 305 309 311 309 309 312 314 316 321 323 323 327 328 326 325 322 322 321 317 316 313 315 323 318 315 325 323 315 319 319 316 321 320 316 316 315 319 319 319 324 327 327 327 324 323 325 329 331 332 334 334 331 334 338 338 336 335 334 334 333 333 333 332 331 330
309 314 318 315 312 314 314 312 313 317 321 321 318 316 313 310 308 307 306 306 305 305 305 306 309 310 308 309 311 312 315 323 323 321 323 325 325 325 323 324 321 317 319 317 315 323 319 314 325 330 319 319 324 323 322 323 321 318 319 319 322 332 334 325 323 328 331 329 324 326 332 334 335 333 332 333 334 336 336 334 334 334 332 333 334 333 332 331
311 318 321 315 312 316 315 313 316 319 319 319 318 314 311 309 308 307 308 306 305 306 306 306 306 307 308 309 311 312 314 323 325 321 322 326 326 324 323 324 322 319 320 321 321 323 320 315 323 334 324 317 326 327 318 317 322 320 320 320 320 325 326 322 323 326 329 334 332 328 328 331 333 331 330 332 332 332 334 334 334 334 332 332 332 331 331 330
311 318 321 315 313 315 315 315 317 318 318 318 317 313 311 311 310 310 310 309 309 308 307 306 305 306 309 309 311 312 311 317 323 321 323 326 324 324 325 322 321 321 323 327 328 324 321 322 329 334 324 317 325 325 316 316 319 319 321 323 322 323 323 322 324 325 329 336 336 333 332 330 330 329 328 331 330 328 331 333 333 333 331 330 329 329 329 329
314 319 319 315 312 312 316 319 318 317 317 317 315 312 311 312 311 311 311 311 310 310 308 307 308 309 311 311 310 311 309 312 319 322 325 328 326 325 325 320 319 322 325 328 328 326 326 325 325 326 322 319 319 317 316 317 317 320 322 321 325 330 330 330 332 331 330 330 329 335 339 332 327 328 328 328 327 326 328 330 332 332 330 329 329 327 327 328
316 318 317 313 311 313 319 321 319 317 316 314 312 311 310 311 310 310 311 310 311 311 309 308 310 311 311 311 310 311 311 312 316 322 325 325 325 325 323 321 320 321 327 330 326 326 328 323 321 329 335 333 323 316 317 317 318 323 324 323 326 326 325 331 337 335 328 325 327 333 338 332 327 328 328 327 327 326 326 328 330 330 328 327 327 326 326 326
313 314 318 314 311 316 320 317 316 316 314 313 312 311 311 310 310 310 310 310 311 312 310 308 310 310 310 310 310 310 311 312 315 320 321 321 322 323 322 322 321 321 328 332 325 322 328 328 327 334 337 334 326 320 319 319 320 323 324 325 325 326 330 330 331 333 329 325 328 332 333 330 327 328 328 327 328 327 327 327 327 328 327 325 326 326 326 326
312 312 316 314 310 315 318 315 314 315 314 313 314 314 312 311 311 311 311 312 311 310 310 309 309 310 310 310 311 311 312 313 315 317 318 319 319 318 319 320 320 322 327 330 326 325 332 332 329 333 335 331 328 328 326 325 325 323 324 326 325 328 333 328 328 337 331 323 328 332 331 330 328 327 328 327 328 328 327 326 325 326 325 324 325 326 325 325
315 312 314 316 315 315 317 315 314 316 316 315 315 313 312 312 311 311 311 312 311 310 311 311 310 312 314 314 314 314 315 316 317 319 319 319 317 314 317 320 321 325 326 328 328 329 331 330 326 330 334 332 332 329 324 326 329 326 324 326 327 327 329 331 337 339 330 327 332 330 329 332 330 328 328 327 327 328 326 325 326 326 325 324 324 324 323 323
314 312 312 316 316 316 318 317 315 315 315 314 313 312 312 313 311 311 312 312 312 311 311 311 312 313 314 317 318 317 316 316 317 319 319 319 319 316 315 317 321 326 326 323 325 330 333 331 326 326 326 324 325 323 318 320 325 324 324 326 329 331 333 336 336 329 324 330 333 328 328 332 330 329 328 326 326 327 326 326 326 324 323 322 320 318 317 316
313 312 312 313 313 315 317 315 314 315 313 313 315 313 312 312 311 312 313 314 311 310 312 313 312 311 310 314 318 316 316 319 318 319 319 318 322 323 321 319 319 321 321 320 323 329 332 328 322 325 327 320 318 320 319 318 318 320 324 327 328 331 334 334 329 324 325 331 331 328 328 329 328 328 327 325 325 324 322 321 319 317 316 315 313 312 311 310
313 315 315 313 312 315 315 311 312 314 312 312 315 313 310 311 312 311 313 315 313 309 310 312 311 310 307 310 316 315 314 318 316 318 319 316 319 326 325 323 320 317 320 324 325 325 328 325 320 324 327 320 318 321 319 317 319 320 321 322 323 326 327 327 325 322 322 324 324 323 323 321 320 321 320 319 318 316 313 312 310 310 310 310 309 308 307 307
311 312 313 315 316 317 315 312 313 315 313 312 313 311 310 311 311 311 312 314 313 310 309 309 309 311 307 307 313 312 309 310 310 314 316 313 317 324 323 322 323 321 322 327 326 324 325 323 320 324 328 322 321 323 319 317 320 320 318 318 320 323 323 324 324 323 323 321 318 319 321 318 315 314 312 312 311 310 308 308 307 307 307 307 306 306 306 306
306 307 309 314 318 316 312 310 312 316 315 314 312 310 311 311 310 312 314 313 311 311 311 308 309 312 310 308 310 309 306 307 307 309 311 309 314 319 317 318 322 325 328 330 328 327 328 324 321 325 328 323 320 322 320 318 321 322 319 317 319 322 323 324 325 324 324 321 318 320 321 318 315 313 309 308 308 308 307 306 306 305 305 305 305 304 305 304
307 308 309 314 317 312 309 310 314 314 312 311 311 309 311 312 309 312 314 312 310 310 310 309 310 311 312 312 311 308 306 306 306 306 307 307 309 311 311 313 317 323 328 329 328 329 332 330 325 326 327 323 321 321 321 323 326 325 319 315 315 320 324 325 324 322 321 321 321 322 319 313 313 312 308 306 306 305 305 305 304 304 304 304 304 303 303 303
Wind_Speed
10 10 10 10 11 10 11 11 11 11 11 11 11 11 11 12 12 12 13 13 14 14 14 15 14 15 15 15 16 16 19 22 23 17 11 16 15 9 9 6 6 5 9 13 10 5 3 5 7 7 5 2 2 2 3 4 3 2 3 4 4 5 6 3 3 5 4 8 10 13 9 2 3 5 2 4 10 11 10 10 12 15 16 19 23 29 30 30
10 10 10 10 10 10 10 10 10 11 11 11 11 11 11 11 12 12 13 13 13 14 14 14 14 15 15 15 15 16 20 22 20 18 17 15 14 12 11 10 6 3 7 11 12 10 6 5 7 6 4 1 2 2 2 3 4 4 3 4 5 8 4 2 4 7 5 7 11 16 11 2 1 4 4 3 7 11 13 9 14 20 17 19 23 25 26 28
11 11 11 11 11 10 10 10 10 10 11 11 11 11 11 11 12 12 13 13 13 14 13 14 14 14 15 15 14 15 19 17 11 12 9 7 9 16 16 13 8 7 8 8 9 13 9 6 8 6 3 1 2 2 2 3 3 4 4 4 7 8 4 4 7 7 6 8 11 15 10 4 4 0 3 6 7 10 13 9 13 18 15 15 16 19 21 22
12 12 11 11 11 11 11 10 10 10 10 11 11 11 11 12 12 12 13 13 13 13 13 13 13 14 14 14 13 15 15 8 4 6 6 6 5 8 18 19 11 9 11 8 6 11 11 5 7 6 3 2 3 2 3 4 3 3 5 5 8 5 5 8 8 7 8 10 9 9 7 7 7 2 5 9 9 6 9 12 17 19 17 17 16 16 17 16
12 12 12 12 12 12 11 11 11 11 11 11 11 11 11 12 11 12 12 12 12 12 13 12 13 14 13 13 13 12 8 3 3 4 6 6 4 2 12 20 15 10 11 10 6 9 9 4 3 4 2 3 3 2 4 6 3 3 4 7 9 5 6 10 8 8 10 11 9 7 6 6 7 2 4 9 9 5 8 13 20 21 18 19 18 15 14 13
12 12 12 12 12 12 12 12 12 12 12 11 11 11 11 11 11 11 11 12 12 12 12 12 12 13 13 13 10 5 1 2 7 7 8 7 3 1 7 15 15 11 12 11 7 6 5 2 2 3 2 2 4 4 6 6 4 4 6 7 10 8 7 9 9 9 10 9 10 9 4 2 6 5 1 5 8 7 10 16 19 18 17 19 18 15 13 12
12 12 12 12 12 12 12 12 12 12 12 12 12 12 11 11 11 11 11 12 12 11 12 11 12 11 12 11 4 0 2 6 13 9 9 7 1 4 9 13 14 14 14 11 7 5 4 4 3 3 3 3 5 6 7 6 5 5 7 9 11 9 8 10 10 11 10 9 10 9 4 2 3 5 2 3 6 10 13 16 17 15 15 19 17 14 13 13
12 12 12 13 13 13 13 13 13 13 13 12 12 12 12 12 12 12 12 12 12 11 11 11 11 9 10 8 2 1 1 10 15 9 6 7 5 5 11 14 15 16 15 13 10 7 4 4 5 3 3 5 5 5 7 6 5 6 8 10 11 9 9 11 10 11 10 8 8 9 8 5 5 2 3 4 9 15 16 17 17 17 16 16 14 14 13 12
13 13 13 13 13 13 13 13 13 13 13 13 13 13 13 13 12 12 12 12 12 11 10 10 9 7 7 5 2 3 6 9 12 9 8 9 8 8 12 14 17 18 14 14 13 9 4 4 6 5 5 6 6 6 6 4 4 6 8 9 10 9 10 10 10 11 9 5 4 5 9 7 5 1 3 5 12 17 17 19 19 19 17 14 13 14 14 13
14 14 14 14 14 14 14 14 14 14 14 14 14 14 14 14 13 13 12 12 12 11 10 8 7 5 5 3 1 2 7 7 9 6 9 11 10 11 14 13 18 20 13 12 13 10 6 6 6 4 5 5 5 7 5 4 5 6 7 8 10 10 9 8 10 13 7 4 6 5 6 8 6 1 2 4 11 18 18 19 19 17 15 13 12 12 12 12
15 15 15 15 15 15 15 15 15 15 15 15 15 15 15 14 13 14 14 14 13 11 9 6 6 4 4 2 3 4 8 5 4 1 5 10 12 12 14 14 18 21 15 10 12 15 14 13 8 1 3 4 4 6 6 5 4 6 8 9 11 10 8 7 8 10 5 4 8 8 6 5 4 1 6 7 9 16 19 18 17 15 13 11 11 10 8 8
15 15 15 15 16 16 16 16 17 17 17 16 16 16 16 15 14 14 14 14 13 10 6 4 3 1 2 2 6 12 8 2 1 4 7 8 12 12 11 13 15 20 18 10 11 21 21 17 8 1 4 4 2 4 5 4 4 6 6 6 10 9 7 7 6 8 6 4 8 8 4 4 1 4 7 11 11 14 18 17 14 13 12 11 11 10 8 8
16 16 16 16 17 17 17 17 18 18 18 18 18 18 18 17 16 15 14 13 11 9 5 3 2 2 1 1 11 20 16 12 14 17 17 13 15 16 13 14 13 15 18 14 15 22 21 16 8 6 8 5 4 4 5 6 4 6 6 3 7 7 6 6 4 6 6 6 8 7 3 6 5 9 8 9 14 15 16 14 12 10 10 10 9 9 8 9
16 17 17 17 17 18 18 18 19 19 19 20 20 20 19 18 17 15 13 10 10 7 3 2 2 3 2 6 17 22 20 21 23 22 17 14 18 20 17 17 14 15 18 18 20 20 19 18 11 7 7 6 5 3 5 5 3 4 6 3 3 3 6 7 3 3 4 5 7 7 4 6 8 11 9 8 14 16 15 13 11 10 9 8 7 9 9 8
17 17 18 18 19 18 19 19 20 20 20 21 21 21 21 19 18 15 11 8 8 4 4 3 4 4 1 9 18 18 13 14 18 21 17 15 18 17 18 19 18 18 19 19 21 19 19 17 9 4 5 4 2 2 4 4 3 1 2 4 3 3 5 7 5 4 5 5 3 7 4 5 7 11 11 7 13 15 14 13 12 11 10 8 6 8 10 8
18 18 20 20 20 19 19 19 20 21 21 22 22 22 21 20 17 13 9 7 7 4 6 2 5 5 1 6 11 12 9 9 11 14 15 18 20 18 20 19 16 18 20 21 22 20 16 10 4 4 3 3 2 1 2 4 4 1 2 4 4 3 4 6 6 5 7 5 1 4 4 3 6 10 12 6 12 14 13 12 12 12 11 9 7 8 10 9
19 20 21 21 21 21 20 20 21 22 22 23 24 24 23 21 16 10 6 3 2 5 7 1 2 4 4 8 9 10 7 7 8 10 15 18 20 23 20 12 10 13 15 18 19 13 8 4 3 3 1 2 2 4 0 4 5 4 1 3 4 4 4 4 6 6 5 5 4 5 4 5 7 8 11 7 11 15 14 14 13 12 11 10 8 9 10 11
20 21 22 22 22 21 20 20 21 22 23 25 25 26 23 17 9 4 3 5 5 4 3 1 0 2 4 6 5 5 2 4 9 11 16 17 18 24 18 8 6 8 5 7 9 5 2 2 1 2 3 3 3 5 5 5 4 3 2 2 4 4 4 5 6 5 3 4 5 6 5 8 11 8 9 8 10 16 16 16 14 13 11 10 9 9 11 12
21 21 22 22 21 21 21 20 21 22 24 26 27 24 15 7 2 5 6 6 5 3 2 3 4 2 4 6 7 7 7 9 11 12 16 17 18 21 16 7 5 5 3 1 4 4 2 1 1 3 5 5 4 5 7 4 2 4 4 3 4 5 5 7 8 5 2 3 6 7 7 10 14 10 10 8 5 13 14 12 11 10 10 10 9 9 11 11
21 22 22 22 21 21 20 20 21 22 24 26 27 19 6 2 4 2 2 3 5 5 5 6 9 7 9 10 11 12 13 14 9 12 19 19 15 12 8 4 3 4 4 4 4 3 4 3 5 7 6 5 6 7 7 5 4 6 6 5 5 5 6 7 8 7 3 3 7 10 10 13 15 12 13 7 6 12 14 12 10 10 11 11 11 12 12 10
22 22 22 21 21 21 20 21 21 22 24 23 19 9 1 0 2 3 2 4 9 10 11 11 13 14 14 15 17 12 8 11 8 8 20 21 13 8 4 4 4 4 5 6 4 1 3 6 8 7 7 8 9 8 7 6 7 7 6 6 7 5 8 10 8 7 3 4 8 10 10 14 15 12 14 8 8 10 16 17 14 13 12 11 13 13 12 10
23 22 22 22 21 21 21 21 22 23 20 15 8 1 4 7 7 5 3 5 9 12 15 15 13 15 17 21 26 16 3 7 12 9 14 16 9 7 4 4 5 4 5 4 2 1 2 6 10 10 9 8 9 8 7 7 7 7 5 5 6 5 7 9 7 6 3 4 8 9 10 14 15 13 14 9 8 8 16 20 18 17 14 12 14 14 14 12
23 23 23 22 22 23 21 22 23 17 11 8 5 6 8 18 18 11 3 4 9 9 12 13 12 13 14 18 23 16 6 8 9 10 11 14 7 7 6 5 6 5 4 4 5 3 3 7 11 11 8 7 8 8 6 6 5 5 5 4 6 6 4 6 5 5 4 4 7 8 8 10 10 8 11 7 5 8 14 20 18 17 17 16 16 15 15 14
23 23 23 22 24 23 22 25 18 6 8 13 13 12 16 25 23 12 2 2 7 6 9 14 12 10 15 14 11 12 10 8 7 9 11 13 6 5 6 5 6 5 4 6 7 6 9 12 6 6 7 8 9 9 6 5 4 5 7 7 8 7 6 7 7 6 7 6 4 4 5 6 5 5 9 4 4 8 11 16 14 11 12 13 13 12 10 11
23 23 22 23 23 23 25 21 8 4 16 16 13 14 19 22 21 8 2 1 6 5 6 11 8 8 15 13 9 10 8 7 8 8 11 14 8 5 4 4 5 5 7 8 7 6 13 14 4 6 9 9 8 9 7 6 4 6 7 10 10 8 7 8 7 5 6 7 3 5 5 5 4 3 8 4 4 9 9 12 14 10 11 12 11 10 9 10
23 22 22 21 21 26 23 10 6 15 18 9 8 17 16 16 20 8 3 3 5 5 3 5 5 6 8 9 9 7 4 5 11 12 12 16 14 9 4 2 3 6 7 6 4 3 9 9 5 8 9 9 9 9 8 8 5 6 6 9 10 6 5 7 6 3 1 4 4 4 6 3 4 2 5 2 6 10 9 9 12 12 12 12 10 10 10 12
22 21 21 21 21 22 15 7 14 18 8 5 15 20 13 15 19 7 2 4 4 4 2 2 3 5 5 9 11 8 2 4 7 11 12 17 13 7 6 5 3 5 5 3 2 3 7 9 7 8 9 8 7 7 9 9 7 6 6 7 6 3 5 6 6 3 2 5 5 3 4 3 2 3 4 2 8 10 10 9 9 10 12 11 11 11 13 14
22 20 20 21 19 17 11 13 17 11 5 12 19 17 13 16 15 3 4 2 3 2 2 2 2 3 3 7 13 9 5 3 5 6 11 21 14 4 5 7 6 8 6 5 5 5 5 8 9 9 8 6 6 10 11 9 7 7 7 7 5 5 7 5 5 5 3 2 6 6 3 3 2 5 3 3 8 9 9 12 12 12 13 13 13 14 15 15
21 21 20 21 20 14 7 11 12 8 9 17 18 16 15 13 8 2 4 0 3 2 1 1 1 2 2 6 10 8 5 3 3 3 8 17 15 6 4 7 7 8 5 6 6 7 4 8 10 8 7 6 9 14 11 10 8 7 6 5 2 3 5 4 5 3 2 1 5 6 2 3 3 6 4 4 4 6 6 8 12 13 13 13 13 15 16 14
22 22 21 19 19 13 5 11 15 9 11 16 17 16 13 7 4 4 1 3 3 3 2 1 2 1 5 8 7 8 7 2 2 3 4 6 9 5 3 4 5 3 3 3 5 8 8 8 7 5 6 8 9 9 9 12 10 4 3 2 2 2 1 2 3 2 2 2 7 7 2 4 1 5 3 1 1 8 9 7 10 12 13 14 13 15 16 14
23 23 22 18 17 11 6 9 9 5 9 15 16 12 6 4 4 3 2 4 3 4 1 4 4 2 5 9 6 7 8 4 3 5 3 1 4 3 1 1 3 0 2 3 4 7 8 7 6 5 7 6 6 5 4 5 5 3 3 2 1 4 4 3 3 3 4 4 7 6 4 6 1 4 4 5 3 10 16 14 15 14 13 14 13 13 14 13
24 23 23 19 17 13 11 8 6 6 8 12 11 5 4 3 2 2 4 4 3 1 3 4 6 6 1 3 4 7 7 4 3 5 5 4 4 5 4 4 4 2 3 3 3 5 6 6 6 5 5 4 5 4 3 4 2 3 1 3 3 2 2 2 3 0 3 4 6 5 4 4 3 4 4 9 7 8 16 16 18 18 16 15 13 13 12 11
24 24 20 15 13 16 16 10 7 5 6 8 6 3 6 4 2 5 5 3 1 2 5 7 11 9 3 4 3 5 6 4 3 5 6 5 5 6 6 6 6 4 3 3 2 3 5 6 5 3 3 2 6 4 2 3 0 3 3 4 4 2 1 1 3 1 1 4 6 4 2 1 2 2 6 10 5 8 14 12 13 15 15 15 13 13 12 11
23 20 14 9 9 12 12 7 2 1 6 7 4 4 5 2 4 4 4 4 4 7 9 9 15 13 5 6 5 4 3 4 3 5 6 5 4 5 5 6 5 5 3 2 1 2 2 5 4 3 3 2 5 6 6 4 3 3 4 5 5 4 4 2 3 2 2 3 4 3 1 1 1 2 7 6 6 8 13 14 13 11 10 11 11 11 12 11
20 14 9 9 8 7 4 3 5 2 3 4 5 4 3 4 3 2 3 3 3 7 11 11 11 9 6 4 5 5 3 2 2 2 4 6 6 6 5 5 7 5 4 2 3 2 4 5 7 5 4 5 6 6 6 6 0 4 2 5 3 5 5 2 2 5 4 1 2 1 1 1 2 1 6 6 10 9 10 13 15 14 11 9 8 9 10 9
19 12 6 7 6 2 4 10 9 5 2 4 5 1 3 4 2 2 2 4 4 7 12 11 7 4 4 4 3 2 2 3 2 4 1 4 5 5 5 4 5 7 6 4 3 1 2 5 7 4 2 6 8 6 5 6 3 2 1 3 4 4 7 3 1 0 3 2 2 0 2 2 2 4 8 7 12 10 9 10 12 13 13 11 9 8 8 8
19 12 4 5 5 6 10 13 12 7 3 5 4 3 4 3 3 3 4 7 7 7 7 6 4 3 3 4 4 4 1 1 2 1 2 1 1 2 2 1 1 4 4 4 4 3 3 5 7 4 4 6 5 3 1 4 6 3 1 4 2 2 4 3 1 2 4 2 4 2 4 1 2 1 6 4 11 8 6 9 9 9 9 8 7 7 7 6
17 10 4 3 4 10 13 13 11 7 4 5 1 3 3 2 3 4 6 7 7 6 4 3 3 2 2 4 5 5 3 3 2 3 0 1 1 2 1 1 1 3 0 2 3 2 3 3 8 4 3 5 1 4 3 5 1 4 3 2 3 2 0 1 2 1 2 2 2 4 2 0 2 3 4 2 9 9 7 8 9 8 7 6 6 7 7 4
10 5 3 1 6 10 13 14 9 3 5 3 1 2 2 3 5 5 6 7 6 5 4 3 4 2 4 3 4 4 2 3 3 3 2 1 2 2 1 1 1 2 2 2 3 2 1 2 6 6 2 1 4 5 2 5 6 2 2 2 2 3 3 2 2 3 3 3 1 2 2 1 1 2 5 4 5 9 10 9 8 7 6 5 6 6 6 4
2 2 2 3 9 11 15 13 5 4 3 2 2 2 3 4 5 7 8 6 4 3 3 5 4 4 5 4 4 4 1 4 3 3 2 2 2 2 2 1 2 3 4 4 2 1 2 2 4 6 5 2 1 1 3 3 4 4 4 3 2 1 2 2 1 2 4 4 3 2 1 3 3 3 3 1 2 2 9 11 8 6 5 4 4 4 4 4
1 2 2 4 9 13 14 7 2 2 2 1 2 3 4 4 6 8 8 5 4 3 5 8 8 5 4 3 3 4 2 2 3 3 1 1 1 2 3 4 2 2 3 5 4 1 1 1 3 3 3 2 3 3 6 10 7 4 2 0 1 2 4 3 1 2 2 4 4 5 3 4 3 3 2 5 6 4 3 7 7 6 6 6 6 6 5 5
2 2 3 5 7 9 8 3 1 1 1 1 2 4 5 5 6 7 7 6 5 4 5 7 6 4 2 1 1 3 4 1 3 3 3 3 3 3 4 4 5 6 3 1 2 2 1 3 2 2 3 3 4 4 9 11 9 7 4 2 1 1 3 4 3 3 1 3 2 3 3 3 4 3 4 8 8 7 6 1 7 7 7 8 8 8 7 6
1 1 3 6 6 5 6 2 3 2 1 2 3 5 6 4 4 5 6 5 4 3 4 4 3 2 1 1 1 3 5 2 0 1 3 2 3 6 6 5 4 5 4 1 1 3 0 3 2 2 3 3 1 3 8 8 8 6 4 4 3 2 1 4 5 3 3 3 1 3 2 2 4 3 4 7 8 6 7 3 7 8 6 8 9 8 8 7
0 3 2 3 4 3 4 1 1 2 3 4 4 5 4 3 4 6 6 4 3 3 4 4 3 2 2 2 1 2 5 3 2 3 2 1 3 4 4 5 4 4 2 3 2 1 1 0 1 2 3 4 3 1 4 6 6 4 2 4 5 5 3 1 2 3 2 3 4 5 2 2 2 1 4 5 8 8 5 5 5 7 6 8 8 8 8 7
1 1 2 2 2 3 3 2 3 2 3 3 4 5 5 3 4 6 5 3 3 3 3 4 4 3 3 4 3 4 6 3 1 3 3 2 2 3 2 4 6 5 3 2 3 2 1 1 2 4 3 2 2 3 2 2 4 3 2 5 6 8 7 2 2 4 1 2 3 5 3 2 2 4 7 6 8 10 5 5 5 6 7 7 7 7 8 8
2 1 2 4 5 4 1 0 3 2 1 1 2 4 4 4 5 5 4 2 4 4 2 3 4 4 4 5 5 6 7 5 2 3 4 4 3 4 6 8 6 6 8 8 7 5 3 1 2 3 4 4 4 5 4 3 5 4 3 7 7 6 6 5 3 3 2 1 4 3 6 8 5 5 7 6 7 9 5 3 5 6 7 8 7 8 9 8
2 1 0 1 2 3 2 2 3 2 1 2 1 3 4 5 5 4 4 2 4 5 2 3 6 6 5 4 4 4 6 6 5 5 4 4 3 3 8 10 8 6 9 9 6 3 4 3 3 2 1 3 4 5 3 4 6 6 5 6 7 6 8 7 3 1 3 5 3 2 9 11 7 6 8 7 6 7 5 4 5 5 6 8 8 10 12 11
1 1 1 3 1 0 1 2 1 3 2 1 1 2 4 6 5 4 4 3 4 6 4 4 7 8 7 5 3 3 5 5 5 5 4 5 4 4 6 7 7 7 6 5 4 3 5 1 4 3 5 8 5 1 5 7 6 6 6 6 6 7 9 8 3 2 2 4 4 7 9 8 5 7 8 6 5 6 6 6 7 8 9 9 11 13 11 10
2 1 1 2 2 3 2 1 2 4 4 2 1 3 4 6 6 4 4 3 4 7 6 4 7 8 9 7 4 4 4 3 4 4 3 5 5 2 3 3 4 6 5 4 3 2 4 1 3 2 4 9 11 8 3 8 10 8 8 6 5 8 10 9 7 7 8 8 7 10 10 7 3 3 5 6 6 7 8 9 9 10 10 11 12 12 11 10
2 0 2 2 3 1 1 2 2 3 3 3 2 3 4 5 6 4 4 3 4 7 6 6 7 7 6 7 5 4 2 2 1 4 3 5 5 1 1 1 0 3 4 4 3 4 2 2 2 3 3 6 10 10 5 9 14 11 10 10 8 6 7 7 7 8 10 9 7 9 9 5 4 4 5 7 6 8 10 10 9 8 8 11 12 11 11 11
2 2 0 3 2 3 1 1 3 3 2 3 1 1 3 5 4 1 3 3 2 2 5 5 7 5 5 8 7 3 3 3 4 8 6 4 5 2 0 2 2 2 1 2 2 3 3 1 2 4 4 3 5 7 5 6 12 10 11 12 11 5 4 3 2 4 7 8 8 6 5 3 2 3 6 8 8 11 12 10 9 8 7 10 12 10 10 10
5 3 2 4 2 3 1 1 3 3 1 2 2 1 1 4 4 2 0 4 1 0 3 4 5 3 4 7 7 6 7 6 8 9 7 6 6 3 2 4 1 4 2 2 3 1 2 3 1 3 3 1 4 6 5 2 6 6 7 9 9 3 3 4 3 4 5 8 8 5 3 2 2 3 7 9 10 11 10 8 7 7 8 10 11 10 10 9
Wind_Direction
348 348 346 344 341 340 340 338 337 335 333 330 330 330 324 322 316 313 309 305 306 306 309 311 314 318 319 324 324 325 322 318 317 309 270 265 275 263 238 189 136 148 199 219 227 234 209 190 209 202 186 193 191 223 218 196 203 193 178 208 221 240 242 170 194 245 262 297 308 311 326 66 90 98 117 30 69 84 74 63 77 79 85 100 111 121 126 131
345 345 343 341 339 338 337 335 334 332 331 330 330 328 325 325 321 318 313 309 308 306 309 311 314 319 321 324 324 327 322 317 309 284 269 276 271 249 218 186 164 152 179 199 211 205 178 180 198 180 152 165 224 216 216 209 187 185 184 193 219 233 232 132 226 256 291 303 307 307 303 310 34 144 160 89 88 89 80 72 90 95 96 100 113 123 130 136
343 343 340 339 338 336 335 333 332 331 331 330 329 329 328 327 326 323 319 314 311 310 311 313 316 319 321 322 325 332 322 317 306 270 288 330 271 238 205 184 186 198 198 199 207 202 194 189 181 158 133 198 259 233 240 252 211 203 190 204 236 238 267 279 260 273 292 286 292 296 296 334 334 25 120 115 116 106 108 115 110 114 117 112 119 128 134 141
341 341 339 338 336 334 333 330 330 330 329 329 329 330 330 328 327 325 322 319 314 311 311 314 318 317 321 323 330 333 323 318 289 275 327 352 309 245 203 194 191 198 206 218 230 209 210 214 180 161 147 207 266 239 235 244 233 226 183 214 245 241 281 268 262 276 274 274 277 289 325 344 316 357 115 131 115 110 139 144 135 133 131 126 131 137 141 144
341 339 338 336 333 332 333 331 329 329 329 329 329 328 328 327 326 324 323 322 317 312 313 316 317 319 323 325 331 328 327 2 289 298 351 345 338 307 201 196 198 200 201 213 229 209 221 249 191 180 170 213 246 221 241 234 221 268 229 233 253 242 262 267 265 261 263 273 276 292 325 312 301 28 141 153 135 168 169 150 143 139 135 135 143 146 145 144
340 338 337 333 332 332 331 332 329 329 329 328 328 327 326 324 323 324 323 324 321 317 318 318 318 322 324 328 330 315 326 315 293 296 318 326 356 88 165 184 192 192 198 207 209 196 212 223 183 197 189 220 225 215 248 241 187 246 267 255 258 247 244 264 267 257 260 273 279 285 275 262 323 356 204 170 150 167 153 145 142 131 131 139 146 149 143 146
338 337 336 332 332 331 330 330 328 327 327 325 326 325 324 323 324 326 326 327 325 322 320 317 320 323 329 341 335 211 104 267 278 287 287 282 220 133 149 172 182 186 198 199 189 185 184 175 183 188 196 232 225 222 245 250 196 213 260 261 261 255 244 252 255 258 260 264 268 271 256 160 318 327 8 82 112 125 131 136 128 117 130 141 146 148 145 151
338 336 335 334 332 330 330 328 327 326 325 324 324 323 326 325 325 325 326 327 325 326 322 319 324 327 336 349 352 324 245 256 273 283 262 224 185 155 157 172 182 186 194 195 189 182 172 183 208 193 206 235 225 230 239 251 245 225 244 257 263 259 251 250 245 249 249 253 260 263 266 230 216 228 91 106 115 122 131 128 122 127 141 146 147 145 144 149
338 337 336 334 332 331 330 328 328 326 324 324 322 323 325 325 326 324 323 323 323 325 321 322 323 333 347 337 347 325 260 265 291 279 237 206 189 176 170 176 184 187 190 200 196 182 178 190 211 198 204 236 237 250 242 231 250 231 236 249 258 261 259 257 252 249 238 233 249 261 272 263 240 199 104 149 138 131 133 132 135 143 149 151 150 149 149 147
338 337 335 334 334 332 331 330 329 327 326 324 322 322 323 326 327 323 322 321 321 320 319 322 321 339 354 315 94 302 261 296 320 267 218 204 192 182 184 187 188 188 186 197 198 194 202 206 215 210 226 241 228 250 245 212 239 246 255 262 257 261 265 260 259 259 250 228 219 216 258 278 290 295 131 187 146 133 133 137 147 149 149 155 155 153 148 144
338 337 336 334 334 333 333 332 329 328 326 323 322 321 322 326 326 325 325 323 321 319 315 313 320 349 352 343 128 229 258 295 327 221 205 207 200 193 195 200 193 189 185 186 205 210 216 229 237 232 259 253 227 257 256 227 259 269 271 283 274 274 278 271 266 260 258 239 210 191 224 268 329 311 177 182 152 137 138 144 155 151 147 157 157 145 132 140
338 336 335 334 334 335 335 333 331 329 326 325 324 323 323 325 327 326 323 325 325 316 309 300 306 8 345 332 210 238 246 198 253 306 291 249 228 227 217 209 200 195 191 182 209 215 219 233 241 219 253 273 288 276 271 265 296 293 283 286 282 292 290 271 268 259 252 235 205 179 235 282 319 246 201 170 157 144 142 150 158 153 149 159 160 142 130 142
337 335 334 333 334 336 335 334 332 329 328 327 325 325 324 324 325 322 318 322 321 307 290 269 245 153 38 249 240 257 266 265 276 284 281 267 255 253 233 214 212 210 205 198 210 218 225 237 232 229 247 258 267 263 289 302 323 310 303 274 282 310 297 261 243 253 249 221 191 163 240 275 256 249 234 172 159 149 147 156 158 155 153 158 162 139 130 143
336 335 333 332 334 335 334 333 331 329 328 326 326 325 322 324 322 314 311 312 310 296 246 201 162 136 144 253 269 280 286 283 278 271 261 248 249 254 242 221 215 220 218 214 219 226 238 245 239 240 245 224 231 290 323 324 340 313 310 304 281 279 277 276 259 261 276 240 173 152 213 250 255 258 248 186 164 156 153 159 157 156 155 159 160 133 129 144
336 334 332 332 333 334 333 331 330 328 327 325 324 323 321 323 317 307 303 299 299 270 189 170 182 162 34 275 281 294 299 288 268 254 244 224 226 243 241 222 217 224 225 224 228 236 247 252 251 246 257 240 217 353 333 325 332 313 293 305 299 238 272 292 277 231 250 269 155 150 212 248 251 257 251 198 166 163 154 156 161 157 157 157 151 133 132 139
335 333 332 332 332 333 332 331 329 326 325 324 322 321 321 320 309 294 284 281 290 231 174 168 195 183 302 278 291 305 282 261 254 244 229 210 209 223 229 221 221 226 225 230 235 243 250 256 253 218 249 276 201 121 340 334 325 319 183 247 273 266 287 302 286 240 211 241 235 180 205 246 252 250 252 212 158 160 150 155 163 156 159 154 149 148 138 138
335 334 332 332 332 332 332 330 328 325 324 324 323 321 320 316 299 277 270 266 268 187 163 126 171 177 254 270 297 304 265 245 251 236 224 217 212 217 219 213 225 226 221 230 236 243 251 251 240 233 290 274 175 120 124 272 266 287 315 243 259 254 263 286 294 283 221 215 243 232 212 230 248 244 245 220 148 149 151 159 166 163 162 153 155 154 141 146
335 333 332 332 332 332 332 330 327 325 326 325 324 323 321 316 298 251 157 136 124 135 169 298 106 165 263 260 269 277 273 278 265 235 222 220 213 213 209 196 220 225 216 229 238 243 246 270 263 266 294 243 178 132 188 229 209 222 256 251 277 278 267 265 272 287 262 242 245 242 238 241 250 248 247 238 152 149 159 164 167 166 156 150 156 151 147 152
335 334 333 333 332 331 329 328 326 325 329 325 323 326 324 320 7 122 131 139 127 111 233 231 175 172 270 253 243 261 298 303 276 237 220 215 208 209 207 203 211 201 183 201 258 249 198 293 303 236 250 231 217 193 205 225 166 216 246 226 248 276 273 260 258 260 223 255 258 237 231 236 242 242 245 251 152 142 154 158 158 154 146 150 154 152 155 155
336 335 334 333 331 328 326 327 325 327 331 326 326 335 341 15 35 79 126 186 208 222 244 218 193 221 268 273 272 281 303 305 273 215 214 213 199 200 205 196 189 188 179 166 225 251 151 193 243 225 226 222 228 230 221 234 235 249 277 268 258 265 269 267 266 269 209 195 252 237 227 234 234 236 238 232 113 126 141 145 155 155 153 158 156 156 156 153
336 336 335 333 329 326 325 324 324 328 328 321 324 340 336 34 355 310 302 241 230 226 244 238 209 223 244 256 271 286 322 313 295 230 218 212 184 174 195 170 168 205 204 176 197 278 144 201 239 226 217 217 225 230 223 232 242 248 260 268 275 265 266 271 267 272 214 177 255 237 220 238 231 227 237 206 122 137 149 153 167 164 159 160 152 150 150 154
336 337 334 332 328 325 325 324 325 326 320 316 321 280 246 288 293 304 330 279 258 220 229 243 227 236 241 245 258 267 305 281 288 286 220 198 171 172 194 169 168 211 216 165 155 278 224 231 241 230 215 213 230 234 218 224 237 242 248 262 274 264 271 279 267 263 201 171 267 241 208 235 231 222 237 211 149 161 163 162 169 163 158 160 153 149 154 158
335 337 335 332 327 325 325 325 325 322 320 329 298 235 286 314 309 304 310 292 280 227 215 232 227 239 241 242 249 241 233 235 254 278 212 179 175 178 175 176 182 201 202 176 181 193 240 248 235 224 209 205 237 246 227 234 245 238 239 250 261 256 267 286 284 287 272 225 246 229 205 233 236 230 247 233 149 163 171 168 167 163 160 160 158 156 157 154
334 337 336 331 327 326 326 327 326 325 341 326 286 275 318 329 323 308 268 274 285 257 218 218 213 229 234 232 222 202 214 220 218 252 206 175 168 156 167 185 184 203 200 191 192 188 237 250 219 187 204 205 228 249 235 230 255 244 228 227 245 249 239 253 278 307 318 297 244 168 179 242 257 231 248 277 105 149 170 164 158 152 149 147 146 144 139 136
334 337 335 331 330 327 327 328 326 327 331 313 281 310 334 335 333 323 135 35 290 273 227 212 203 229 227 209 183 174 195 216 217 231 196 177 170 147 184 190 166 213 214 199 194 198 244 251 181 167 215 209 217 245 228 195 230 259 236 221 221 224 229 251 285 332 354 324 306 111 143 249 299 227 234 289 91 142 164 159 150 139 140 141 134 128 116 114
334 335 334 333 331 331 333 335 322 323 323 302 303 334 338 337 337 322 140 45 295 262 224 192 180 208 204 178 174 153 141 219 220 215 194 184 178 152 173 201 157 214 208 195 197 204 245 245 185 192 216 210 215 242 228 181 197 254 236 210 195 189 235 273 302 340 16 281 282 102 136 221 318 305 225 250 104 135 156 153 146 145 147 144 132 126 120 122
333 331 332 331 331 338 339 310 315 321 314 313 336 341 339 341 339 316 137 30 295 245 194 184 181 189 178 170 162 140 171 228 200 204 189 183 185 148 161 189 175 211 195 164 206 222 231 236 217 204 211 213 212 240 227 177 176 242 235 205 190 202 258 275 290 282 233 264 301 10 104 122 313 273 225 152 98 121 147 146 141 144 141 133 126 124 126 134
330 329 329 327 329 335 314 289 305 311 305 335 344 346 341 341 338 325 102 32 275 248 175 206 194 183 167 160 156 159 222 180 150 213 179 176 186 144 169 197 186 209 199 156 211 251 222 222 227 209 204 212 210 230 222 175 186 239 223 206 211 233 245 255 271 274 281 305 307 316 40 86 273 273 298 52 88 116 146 147 145 144 138 132 127 127 131 136
329 327 324 324 325 326 299 271 276 281 321 343 349 344 339 339 341 49 89 266 274 312 265 178 155 192 122 141 168 199 233 131 154 222 154 171 187 159 180 210 194 217 220 164 209 265 247 226 232 211 195 206 219 230 210 172 205 234 203 197 214 227 242 255 250 256 347 324 263 279 359 83 276 287 330 18 85 130 141 141 145 142 136 133 130 132 138 140
329 324 322 322 318 319 306 273 271 285 334 345 342 336 338 346 27 67 75 247 282 297 268 48 14 174 136 147 186 216 220 208 139 128 106 171 189 165 169 195 176 207 253 210 232 258 261 259 251 219 208 205 206 218 194 182 202 201 150 183 280 292 329 301 257 135 101 256 253 251 198 122 285 293 285 305 149 141 131 130 142 138 131 134 136 140 146 149
326 322 320 314 303 302 299 282 286 322 341 336 333 335 351 21 64 92 222 253 284 281 343 17 330 327 146 165 184 202 212 227 119 122 113 144 174 187 269 170 165 145 330 308 281 275 279 273 258 233 223 196 175 211 208 188 187 146 126 124 280 312 15 13 331 73 130 245 259 237 166 118 149 272 273 294 268 152 144 149 152 144 138 140 142 145 150 154
323 319 315 304 288 268 251 266 311 325 325 336 340 354 63 56 41 192 245 303 311 272 30 356 322 334 313 210 191 183 197 214 161 144 150 154 170 197 204 187 181 198 285 275 279 295 292 261 253 252 231 157 141 223 296 2 43 130 143 90 105 289 355 0 302 198 180 240 256 232 142 114 214 244 306 321 305 166 153 155 153 147 145 146 147 149 153 158
320 318 314 304 282 255 254 281 311 308 340 358 355 36 81 88 233 226 242 289 317 355 353 333 328 333 286 250 246 189 192 209 189 166 165 161 174 200 219 213 171 144 209 230 250 288 291 289 288 276 265 139 128 168 268 327 3 158 180 141 140 180 123 280 270 279 236 239 263 265 154 186 268 303 329 334 341 141 139 131 133 140 145 146 148 150 154 162
321 323 316 296 279 271 276 290 278 319 2 7 29 65 87 147 235 237 242 264 284 323 335 334 331 327 284 231 211 169 186 225 191 161 167 154 163 200 232 235 195 142 149 221 237 201 228 294 283 214 243 213 151 174 185 176 178 201 191 146 149 163 151 209 229 193 229 247 292 310 150 169 165 286 310 350 48 103 120 114 117 128 135 137 142 150 157 167
327 329 306 279 279 293 285 168 141 97 15 32 65 77 141 198 255 254 243 277 300 323 329 333 328 316 303 266 202 158 146 211 349 47 169 168 170 190 201 219 215 171 133 182 243 191 180 244 253 230 216 193 191 204 167 127 160 249 166 109 169 190 156 160 180 172 179 161 336 347 106 327 146 273 327 53 79 77 99 112 123 134 142 143 148 158 164 174
333 335 305 270 266 260 148 143 140 145 120 72 75 125 205 212 236 233 275 320 341 340 333 337 341 319 317 318 242 210 144 135 29 6 277 190 178 191 193 203 210 181 158 175 217 209 180 249 277 298 276 212 201 207 167 142 170 256 102 153 214 181 133 127 246 167 89 118 276 9 104 329 43 17 347 52 87 81 94 113 127 142 152 155 158 166 173 185
335 341 313 259 238 174 151 142 145 160 127 77 103 203 230 230 240 267 313 326 328 334 338 338 335 315 319 341 332 318 347 108 131 120 315 293 224 244 231 262 183 169 183 189 207 237 199 253 285 293 293 266 210 181 215 179 151 127 203 211 205 68 90 111 150 14 51 147 265 10 119 184 78 44 311 49 94 94 107 124 133 146 154 155 159 168 175 183
329 333 313 273 190 169 160 150 154 156 85 66 93 249 242 241 285 303 310 316 316 321 329 301 271 281 326 333 334 339 324 284 203 163 186 353 296 270 239 287 67 102 79 163 175 249 188 238 287 277 266 290 346 67 2 313 289 153 196 190 117 101 278 85 125 130 102 156 283 352 51 51 102 158 250 181 125 127 126 130 142 154 159 156 160 165 163 157
323 338 333 72 129 162 170 165 162 118 60 69 250 270 254 259 282 288 288 297 301 298 289 253 230 280 322 298 297 324 281 232 225 188 186 143 255 255 190 283 318 83 47 98 149 232 144 174 280 292 277 310 14 50 49 319 323 357 22 5 90 138 162 171 152 154 149 151 232 335 26 315 246 214 239 230 149 138 142 145 153 160 163 157 152 152 148 139
308 24 319 138 128 156 169 166 146 58 74 156 211 233 266 281 281 281 281 286 292 285 273 271 268 286 296 276 271 294 226 176 187 201 211 182 212 250 207 210 348 19 17 43 95 262 28 141 240 293 321 41 27 310 115 73 2 7 37 15 331 56 111 144 162 132 130 137 169 168 179 256 268 286 260 222 38 152 155 147 145 144 134 123 110 102 102 84
97 30 275 164 138 154 158 150 81 74 144 226 237 237 273 283 279 289 296 304 301 262 249 267 266 252 263 286 298 308 313 193 168 142 139 194 193 265 226 182 128 44 12 23 36 357 3 137 194 287 330 92 181 216 103 90 80 62 66 69 243 163 125 126 245 285 108 128 161 157 176 257 280 323 356 65 35 319 203 143 131 116 99 90 76 69 68 65
83 41 213 168 146 148 131 105 313 138 161 270 276 287 314 309 290 300 312 321 308 267 260 274 270 250 255 284 356 344 338 291 174 146 154 175 193 223 233 199 140 117 113 46 317 256 159 107 114 264 254 182 174 140 102 96 91 75 50 354 14 103 109 127 190 241 91 98 118 115 124 259 289 341 49 69 46 348 312 149 114 99 88 84 75 68 64 60
88 324 212 162 156 133 91 47 318 2 296 291 315 312 321 319 297 304 314 327 324 288 288 301 314 345 340 311 346 356 345 329 160 128 134 146 214 215 205 192 141 109 114 142 287 286 42 71 41 296 295 307 285 101 83 73 72 64 17 351 18 1 202 156 170 178 144 143 125 88 109 241 285 345 64 85 71 32 334 335 102 98 85 81 78 76 74 68
178 288 252 150 165 134 86 94 287 329 295 315 339 313 304 293 282 298 307 314 311 293 294 301 310 323 303 301 333 11 356 357 41 39 56 126 242 238 183 153 116 81 103 175 185 254 281 53 51 47 18 348 318 319 46 53 68 75 330 339 11 9 4 114 120 86 114 194 150 126 159 236 274 5 82 94 91 78 4 342 80 93 85 80 78 82 84 82
51 293 293 20 59 93 100 156 170 201 282 326 332 311 313 298 286 303 304 273 262 278 278 283 299 331 352 352 14 29 18 14 31 11 8 7 322 334 55 94 85 77 92 126 114 105 137 172 103 99 129 176 215 224 205 108 92 87 346 359 18 19 19 25 106 82 82 265 85 104 156 160 96 98 111 112 102 94 56 8 53 77 86 88 84 87 87 86
78 70 316 343 18 50 62 148 122 134 246 5 348 316 314 306 303 316 331 315 307 316 291 285 327 5 10 14 38 33 13 5 30 46 20 1 352 6 38 48 53 86 95 75 65 77 99 100 81 121 160 181 196 210 209 139 102 107 58 28 26 19 28 55 86 86 141 114 42 63 141 128 111 104 108 109 102 97 87 69 81 84 91 94 91 89 85 78
86 98 83 291 347 16 2 347 56 95 179 143 82 317 302 308 312 329 355 339 301 318 341 10 16 28 6 5 54 33 353 358 28 41 12 347 337 11 39 43 32 55 85 73 47 71 95 40 0 22 323 281 224 195 153 107 110 126 116 66 45 37 44 56 49 329 151 117 74 150 137 124 131 127 115 119 118 112 120 123 106 91 86 90 88 84 81 78
99 144 160 147 146 354 13 359 72 94 62 124 125 320 312 323 336 350 342 286 294 342 16 20 14 27 19 14 79 45 354 8 19 8 359 353 340 358 33 44 27 21 55 70 42 72 102 35 332 7 4 341 332 50 94 101 101 98 106 98 82 75 73 74 42 331 130 123 140 148 124 109 119 120 116 127 125 113 112 102 93 88 86 87 86 83 77 75
70 41 304 88 101 190 196 1 88 88 39 22 20 345 329 337 351 359 332 306 342 359 25 34 1 10 23 29 77 69 22 34 6 334 348 356 341 6 31 19 12 4 15 62 50 55 104 72 333 29 40 10 5 357 27 101 95 72 61 54 60 85 93 90 78 71 74 75 99 117 104 79 49 57 85 94 93 96 94 85 82 87 92 90 86 82 76 68
71 79 301 29 31 265 207 16 57 88 29 7 25 351 334 343 357 357 330 350 20 349 0 37 9 354 17 28 59 87 67 70 325 278 295 346 333 1 64 274 124 9 5 55 32 347 57 78 340 44 60 21 13 352 348 98 96 74 45 22 13 54 87 89 98 97 80 67 78 94 89 66 7 6 60 77 83 88 82 77 76 76 84 89 85 80 77 74
348 241 186 94 36 328 335 42 65 89 21 352 37 352 335 338 357 39 302 317 67 357 331 19 17 354 7 16 22 22 326 325 273 257 254 279 278 250 3 274 161 117 23 90 67 355 35 46 353 55 62 356 4 342 319 95 89 64 34 8 348 0 92 100 121 122 118 119 114 97 90 90 354 10 57 60 67 76 71 68 73 64 63 78 79 73 67 65
355 326 24 92 90 351 1 82 49 67 31 291 270 273 282 292 312 82 301 310 13 51 308 9 36 17 2 356 338 309 300 292 275 269 260 250 255 260 265 266 189 109 130 99 83 94 117 113 70 69 93 315 330 315 295 49 66 44 16 348 321 296 119 89 56 61 101 130 137 141 138 100 37 47 69 59 55 62 58 55 65 64 61 66 65 62 61 58